When you browse on this site, cookies collect data to enhance your experience and personalize the content and advertising you see.
Visit our Privacy Policy to learn more. By continuing to use the site, you agree to this use of cookies and data.
  • In Hungary
  • List of Countries
  • For 7 days
  • Water Temperature
  • Satellite Maps
  • Weather Map
  • News
  • Weather Widgets
  • user-avatar
    Login

    Hourly Weather León

    Today, 16 January, Wednesday

    Time Temperature Precipitation Wind Pressure Humidity
    00:00 +26°C° 0 mm 4 mps 752 mmHg 67%
    01:00 +26°C° 0 mm 3 mps 752 mmHg 68%
    02:00 +25°C° 0 mm 3 mps 751 mmHg 69%
    03:00 +24°C° 0 mm 3 mps 751 mmHg 71%
    04:00 +24°C° 0 mm 3 mps 751 mmHg 71%
    05:00 +22°C° 0 mm 3 mps 752 mmHg 72%
    06:00 +23°C° 0 mm 2 mps 752 mmHg 75%
    07:00 +25°C° 0 mm 3 mps 752 mmHg 64%
    08:00 +28°C° 0 mm 4 mps 752 mmHg 53%
    09:00 +30°C° 0 mm 4 mps 753 mmHg 41%
    10:00 +34°C° 0 mm 4 mps 752 mmHg 34%
    11:00 +36°C° 0 mm 4 mps 752 mmHg 27%
    12:00 +39°C° 0 mm 5 mps 751 mmHg 20%
    13:00 +40°C° 0 mm 5 mps 751 mmHg 21%
    14:00 +40°C° 0 mm 5 mps 750 mmHg 21%
    15:00 +40°C° 0 mm 5 mps 749 mmHg 22%
    16:00 +37°C° 0 mm 5 mps 750 mmHg 26%
    17:00 +35°C° 0 mm 5 mps 750 mmHg 31%
    18:00 +33°C° 0 mm 5 mps 750 mmHg 35%
    19:00 +32°C° 0 mm 4 mps 750 mmHg 41%
    20:00 +30°C° 0 mm 4 mps 751 mmHg 47%
    21:00 +28°C° 0 mm 4 mps 751 mmHg 53%
    22:00 +28°C° 0 mm 4 mps 751 mmHg 57%
    23:00 +27°C° 0 mm 4 mps 752 mmHg 60%

    Tomorrow, 17 January, Thursday

    Time Temperature Precipitation Wind Pressure Humidity
    00:00 +27°C° 0 mm 4 mps 752 mmHg 63%
    01:00 +26°C° 0 mm 4 mps 752 mmHg 66%
    02:00 +25°C° 0 mm 4 mps 751 mmHg 68%
    03:00 +25°C° 0 mm 3 mps 751 mmHg 71%
    04:00 +24°C° 0 mm 3 mps 751 mmHg 72%
    05:00 +24°C° 0 mm 3 mps 752 mmHg 73%
    06:00 +24°C° 0 mm 3 mps 752 mmHg 74%
    07:00 +26°C° 0 mm 4 mps 752 mmHg 65%
    08:00 +28°C° 0 mm 4 mps 752 mmHg 55%
    09:00 +32°C° 0 mm 5 mps 753 mmHg 45%
    10:00 +34°C° 0 mm 5 mps 752 mmHg 39%
    11:00 +36°C° 0 mm 6 mps 752 mmHg 33%
    12:00 +39°C° 0 mm 6 mps 751 mmHg 27%
    13:00 +39°C° 0 mm 6 mps 750 mmHg 27%
    14:00 +39°C° 0 mm 6 mps 749 mmHg 27%
    15:00 +40°C° 0 mm 6 mps 749 mmHg 27%
    16:00 +38°C° 0 mm 6 mps 749 mmHg 31%
    17:00 +35°C° 0 mm 5 mps 749 mmHg 36%
    18:00 +33°C° 0 mm 5 mps 749 mmHg 41%
    19:00 +32°C° 0 mm 5 mps 750 mmHg 47%
    20:00 +30°C° 0 mm 5 mps 751 mmHg 53%
    21:00 +29°C° 0 mm 5 mps 751 mmHg 59%
    22:00 +28°C° 0 mm 4 mps 751 mmHg 62%
    23:00 +27°C° 0 mm 4 mps 751 mmHg 64%

    Day after tomorrow, 18 January, Friday

    Time Temperature Precipitation Wind Pressure Humidity
    00:00 +27°C° 0 mm 4 mps 751 mmHg 67%
    01:00 +26°C° 0 mm 4 mps 751 mmHg 69%
    02:00 +25°C° 0 mm 3 mps 751 mmHg 71%
    03:00 +25°C° 0 mm 3 mps 751 mmHg 73%
    04:00 +25°C° 0 mm 3 mps 751 mmHg 74%
    05:00 +24°C° 0 mm 3 mps 751 mmHg 74%
    06:00 +24°C° 0 mm 3 mps 751 mmHg 75%
    07:00 +27°C° 0 mm 3 mps 751 mmHg 65%
    08:00 +29°C° 0 mm 4 mps 752 mmHg 56%
    09:00 +32°C° 0 mm 5 mps 752 mmHg 46%
    10:00 +34°C° 0 mm 5 mps 752 mmHg 41%
    11:00 +36°C° 0 mm 5 mps 751 mmHg 36%
    12:00 +39°C° 0 mm 6 mps 751 mmHg 31%
    13:00 +39°C° 0 mm 6 mps 750 mmHg 30%
    14:00 +39°C° 0 mm 5 mps 749 mmHg 30%
    15:00 +39°C° 0 mm 5 mps 748 mmHg 30%
    16:00 +37°C° 0 mm 5 mps 748 mmHg 34%
    17:00 +35°C° 0 mm 5 mps 748 mmHg 38%
    18:00 +33°C° 0 mm 4 mps 749 mmHg 42%
    19:00 +32°C° 0 mm 4 mps 749 mmHg 47%
    20:00 +30°C° 0 mm 4 mps 750 mmHg 52%
    21:00 +29°C° 0 mm 4 mps 751 mmHg 57%
    22:00 +28°C° 0 mm 4 mps 751 mmHg 61%
    23:00 +27°C° 0 mm 4 mps 751 mmHg 64%

    19 January, Saturday

    Time Temperature Precipitation Wind Pressure Humidity
    00:00 +26°C° 0 mm 4 mps 750 mmHg 68%
    01:00 +26°C° 0 mm 4 mps 750 mmHg 70%
    02:00 +25°C° 0 mm 4 mps 750 mmHg 72%
    03:00 +25°C° 0 mm 4 mps 749 mmHg 74%
    04:00 +24°C° 0 mm 3 mps 750 mmHg 76%
    05:00 +24°C° 0 mm 3 mps 750 mmHg 78%
    06:00 +22°C° 0 mm 3 mps 750 mmHg 80%
    07:00 +26°C° 0 mm 3 mps 751 mmHg 69%
    08:00 +28°C° 0 mm 4 mps 751 mmHg 58%
    09:00 +32°C° 0 mm 4 mps 752 mmHg 48%
    10:00 +34°C° 0 mm 4 mps 751 mmHg 41%
    11:00 +36°C° 0 mm 4 mps 751 mmHg 34%
    12:00 +38°C° 0 mm 4 mps 750 mmHg 27%
    13:00 +38°C° 0 mm 4 mps 749 mmHg 27%
    14:00 +38°C° 0 mm 4 mps 748 mmHg 27%
    15:00 +38°C° 0 mm 4 mps 747 mmHg 27%
    16:00 +36°C° 0 mm 3 mps 748 mmHg 34%
    17:00 +34°C° 0 mm 3 mps 748 mmHg 40%
    18:00 +31°C° 0 mm 2 mps 748 mmHg 47%
    19:00 +30°C° 0 mm 2 mps 749 mmHg 51%
    20:00 +29°C° 0 mm 2 mps 750 mmHg 55%
    21:00 +28°C° 0 mm 2 mps 750 mmHg 59%
    22:00 +27°C° 0 mm 2 mps 750 mmHg 62%
    23:00 +27°C° 0 mm 3 mps 750 mmHg 65%

    20 January, Sunday

    Time Temperature Precipitation Wind Pressure Humidity
    00:00 +26°C° 0 mm 3 mps 751 mmHg 69%
    01:00 +26°C° 0 mm 3 mps 750 mmHg 71%
    02:00 +25°C° 0 mm 3 mps 750 mmHg 73%
    03:00 +25°C° 0 mm 2 mps 750 mmHg 75%
    04:00 +24°C° 0 mm 2 mps 750 mmHg 77%
    05:00 +24°C° 0 mm 2 mps 750 mmHg 78%
    06:00 +24°C° 0 mm 2 mps 751 mmHg 79%
    07:00 +26°C° 0 mm 2 mps 751 mmHg 70%
    08:00 +29°C° 0 mm 3 mps 752 mmHg 60%
    09:00 +31°C° 0 mm 3 mps 752 mmHg 50%
    10:00 +35°C° 0 mm 3 mps 752 mmHg 42%
    11:00 +37°C° 0 mm 4 mps 751 mmHg 34%
    12:00 +40°C° 0 mm 4 mps 751 mmHg 25%
    13:00 +41°C° 0 mm 4 mps 750 mmHg 24%
    14:00 +41°C° 0 mm 4 mps 749 mmHg 22%
    15:00 +41°C° 0 mm 5 mps 748 mmHg 21%
    16:00 +38°C° 0 mm 4 mps 748 mmHg 26%
    17:00 +36°C° 0 mm 4 mps 749 mmHg 31%
    18:00 +34°C° 0 mm 4 mps 749 mmHg 35%
    19:00 +33°C° 0 mm 4 mps 750 mmHg 40%
    20:00 +32°C° 0 mm 4 mps 750 mmHg 45%
    21:00 +29°C° 0 mm 4 mps 751 mmHg 49%
    22:00 +29°C° 0 mm 4 mps 751 mmHg 52%
    23:00 +28°C° 0 mm 4 mps 751 mmHg 55%

    21 January, Monday

    Time Temperature Precipitation Wind Pressure Humidity
    00:00 +27°C° 0 mm 3 mps 751 mmHg 57%
    01:00 +27°C° 0 mm 3 mps 751 mmHg 59%
    02:00 +26°C° 0 mm 3 mps 750 mmHg 60%
    03:00 +26°C° 0 mm 3 mps 750 mmHg 62%
    04:00 +25°C° 0 mm 3 mps 750 mmHg 64%
    05:00 +25°C° 0 mm 3 mps 751 mmHg 66%
    06:00 +25°C° 0 mm 4 mps 751 mmHg 67%
    07:00 +27°C° 0 mm 4 mps 751 mmHg 58%
    08:00 +30°C° 0 mm 5 mps 752 mmHg 48%
    09:00 +33°C° 0 mm 6 mps 752 mmHg 38%
    10:00 +35°C° 0 mm 7 mps 752 mmHg 35%
    11:00 +36°C° 0 mm 7 mps 751 mmHg 31%
    12:00 +39°C° 0 mm 7 mps 751 mmHg 28%
    13:00 +38°C° 0 mm 8 mps 750 mmHg 29%
    14:00 +38°C° 0 mm 8 mps 749 mmHg 30%
    15:00 +38°C° 0 mm 8 mps 749 mmHg 31%
    16:00 +35°C° 0 mm 7 mps 749 mmHg 35%
    17:00 +33°C° 0 mm 6 mps 749 mmHg 40%
    18:00 +30°C° 0 mm 6 mps 750 mmHg 44%
    19:00 +29°C° 0 mm 5 mps 750 mmHg 48%
    20:00 +28°C° 0 mm 5 mps 751 mmHg 52%
    21:00 +27°C° 0 mm 5 mps 751 mmHg 56%
    22:00 +26°C° 0 mm 4 mps 751 mmHg 58%
    23:00 +25°C° 0 mm 4 mps 751 mmHg 61%
    Show more